Regional Weather Roundup
Issued by NWS

Home | Current Version | Previous Version | Graphics & Text | Print | Product List | Glossary On
Versions: 1 2 3 4 5 6 7 8 9 10 11 12 13 14 15 16 17 18 19 20 21 22 23 24 25 26 27 28 29 30 31 32 33 34 35 36 37 38 39 40 41 42 43 44 45 46 47 48 49 50
787
ASUS45 KTFX 280510
RWRMT
MONTANA REGIONAL WEATHER ROUNDUP
NATIONAL WEATHER SERVICE GREAT FALLS MT
1100 PM MDT TUE JUN 27 2017

NOTE: "FAIR" INDICATES FEW OR NO CLOUDS BELOW 12000 FEET WITH NO
SIGNIFICANT WEATHER AND/OR OBSTRUCTIONS TO VISIBILITY.

MTZ001>007-043-280600-
WEST OF THE DIVIDE

CITY           SKY/WX    TMP DP  RH WIND       PRES   REMARKS
KALISPELL      PTCLDY    57  45  64 SW7       29.79R
MISSOULA       PTCLDY    71  37  28 N9        29.83R
BUTTE          CLOUDY    55  46  71 S6        29.98R
MULLAN PASS    PTCLDY    52  36  54 VRB5      29.98R
ANACONDA         N/A     61  45  55 S10       29.93R
DEER LODGE       N/A     55  46  71 CALM      29.92S
EUREKA           N/A     66  41  39 CALM      29.77R
HAMILTON         N/A     64  46  52 S12       29.87R
$$

MTZ008-052>055-280600-
SOUTHWEST MONTANA

CITY           SKY/WX    TMP DP  RH WIND       PRES   REMARKS
BOZEMAN        PTCLDY    56  50  80 E6        29.91F
DILLON         CLOUDY    59  44  57 S8        29.97F
W YELLOWSTONE  CLOUDY    46  46 100 CALM      30.07S
ENNIS          PTCLDY    52  45  76 SE9       30.02F
THREE FORKS      N/A     58  50  75 S7        29.90S
$$

MTZ009-010-012-014-046-048-049-054-280600-
EAST SLOPES AND CENTRAL MONTANA

CITY           SKY/WX    TMP DP  RH WIND       PRES   REMARKS
CUT BANK       MOCLDY    62  34  35 W12       29.77R
GREAT FALLS    PTCLDY    60  45  57 S6        29.77R
MALMSTROM AFB  MOCLDY    60  51  69 NE6       29.77R
HELENA         PTCLDY    71  35  26 SW9       29.83R
CHOTEAU          N/A     68  34  28 NW5       29.80S
$$

MTZ011-013-016-021-045-047-050-051-280600-
NORTH CENTRAL MONTANA

CITY           SKY/WX    TMP DP  RH WIND       PRES   REMARKS
HAVRE          CLEAR     58  43  57 SE5       29.73R
LEWISTOWN      CLEAR     58  51  78 S10       29.84R
N BAR RANCH      N/A     55  50  82 W10       29.89S
CHINOOK          N/A     64  45  48 E6        29.72S
FORT BENTON      N/A     66  45  45 MISG      29.76
$$

MTZ017>020-022>027-061-062-280600-
NORTHEAST MONTANA

CITY           SKY/WX    TMP DP  RH WIND       PRES   REMARKS
GLASGOW        CLEAR     63  43  48 NE9       29.73R
JORDAN           N/A     61  59  93 CALM      29.76R
SIDNEY         CLOUDY    67  56  67 NW6       29.70R
WOLF POINT     PTCLDY    67  48  50 VRB5      29.71R
MALTA          CLEAR     64  45  48 VRB7      29.74R
PLENTYWOOD       N/A     61  52  72 CALM      29.68R
POPLAR           N/A     66  52  59 CALM      29.71R
$$

MTZ028>42-056>058-280600-
SOUTHCENTRAL AND SOUTHEAST MONTANA

CITY           SKY/WX    TMP DP  RH WIND       PRES   REMARKS
BAKER          MOCLDY    64  52  64 W10       29.74R
BILLINGS       PTCLDY    67  46  47 W7        29.82S
LIVINGSTON     LGT RAIN  63  47  55 SW29G39   29.87F
MILES CITY     MOCLDY    65  52  62 W7        29.76R
BIG TIMBER     CLEAR     63  45  51 W24       29.89F
LAUREL           N/A     60  41  49 CALM      29.84R
ROUNDUP          N/A     66  49  54 SW5       29.75S
$$

REGIONAL REPORTS...DAKOTAS

CITY           SKY/WX    TMP DP  RH WIND       PRES   REMARKS
WILLISTON      PTCLDY    66  57  72 NW7       29.67R
MINOT          CLOUDY    71  60  68 NW14      29.54R
DICKINSON      PTCLDY    67  54  63 NW10      29.64S
BEACH          DRIZZLE   63  63 100 NW14      29.73S
CROSBY           N/A     61  61 100 N3        29.65R
TIOGA            N/A     64  64 100 N8G14     29.66R
WATFORD CITY   CLOUDY    66  55  68 W9        29.67R
BISMARCK       CLOUDY    67  65  93 NW6       29.53S
GRAND FORKS    CLOUDY    67  50  54 SE15      29.57F
FARGO          CLOUDY    70  50  49 SE15G28   29.55F
BUFFALO SD       N/A     67  52  58 NW22      29.66R
RAPID CITY     CLOUDY    65  51  60 NW13      29.74R
$$

REGIONAL REPORTS...WYOMING/IDAHO/WASHINGTON

CITY           SKY/WX    TMP DP  RH WIND       PRES   REMARKS
GILLETTE         N/A     57  54  89 MISG      29.87R
SHERIDAN       CLOUDY    57  51  80 W9        29.88S
BUFFALO WY     CLOUDY    59  48  67 NW12      29.93S
CODY           CLOUDY    62  41  46 W12G18    29.93S
YELLOWSTONE LA   N/A     42  42 100 CALM      30.15R
IDAHO FALLS    CLEAR     61  48  62 N14       29.94R
SALMON         CLOUDY    61  50  67 S3        29.95R
BOISE          MOCLDY    78  43  28 CALM      29.76R
SPOKANE        MOCLDY    71  37  28 SW7       29.81R
$$

REGIONAL REPORTS...ALBERTA

CITY           SKY/WX    TMP DP  RH WIND       PRES   REMARKS
EDMONTON       PTCLDY    55  46  71 W12G18    29.68F
CALGARY        PTCLDY    57  46  67 N5        29.78R
LETHBRIDGE     CLEAR     63  41  45 VRB2      29.69R
MEDICINE HAT   CLOUDY    66  43  42 NE12G20   29.73R
WATERTON GATE    N/A     59  34  38 W8          N/A
CARDSTON         N/A     64  36  34 W9          N/A
MILK RIVER       N/A     59  46  63 W2          N/A
ONEFOUR          N/A     61  41  48 E8          N/A
$$

REGIONAL REPORTS...SASKATCHEWAN

CITY           SKY/WX    TMP DP  RH WIND       PRES   REMARKS
SWIFT CURRENT  CLEAR     55  39  54 N8        29.74S
REGINA         CLEAR     54  43  66 NW10      29.66S
SASKATOON      PTCLDY    54  43  66 W7        29.68R
CYPRESS HILLS    N/A     55  36  47 E6          N/A
VAL MARIE        N/A     48  39  71 NE2         N/A
ROCKGLEN         N/A     57  41  54 NW8         N/A
$$




USA.gov is the U.S. government's official web portal to all federal, state and local government web resources and services.